Time,TemperatureF,DewpointF,PressureIn,WindDirection,WindDirectionDegrees,WindSpeedMPH,WindSpeedGustMPH,Humidity,HourlyPrecipIn,Conditions,Clouds,dailyrainin,SoftwareType,DateUTC
2013-06-24 00:01:00,59.2,55.9,29.12,SW,225,12.0,12.0,89,0.00,,,0.01,meteohub,2013-06-24 07:01:00,
2013-06-24 00:07:00,59.0,56.1,29.13,South,180,4.0,12.0,90,0.00,,,0.01,meteohub,2013-06-24 07:07:00,
2013-06-24 00:12:00,58.8,55.9,29.13,SW,225,2.0,12.0,90,0.00,,,0.01,meteohub,2013-06-24 07:12:00,
2013-06-24 00:17:00,58.8,55.9,29.13,SW,225,4.0,12.0,90,0.00,,,0.01,meteohub,2013-06-24 07:17:00,
2013-06-24 00:22:00,58.6,55.4,29.14,SW,225,6.0,8.0,89,0.00,,,0.01,meteohub,2013-06-24 07:22:00,
2013-06-24 00:28:00,58.6,55.4,29.13,South,180,8.0,9.0,89,0.00,,,0.01,meteohub,2013-06-24 07:28:00,
2013-06-24 00:33:00,58.6,55.4,29.14,SW,225,8.0,9.0,89,0.00,,,0.01,meteohub,2013-06-24 07:33:00,
2013-06-24 00:38:00,58.5,55.6,29.14,SW,225,7.0,9.0,90,0.00,,,0.01,meteohub,2013-06-24 07:38:00,
2013-06-24 00:44:00,58.3,55.4,29.14,South,180,7.0,10.0,90,0.00,,,0.01,meteohub,2013-06-24 07:44:00,
2013-06-24 00:49:00,58.1,54.9,29.14,SW,225,9.0,11.0,89,0.00,,,0.01,meteohub,2013-06-24 07:49:00,
2013-06-24 00:54:00,57.9,54.7,29.14,South,180,4.0,11.0,89,0.00,,,0.01,meteohub,2013-06-24 07:54:00,
2013-06-24 01:00:00,57.9,54.7,29.14,SW,225,5.0,11.0,89,0.00,,,0.01,meteohub,2013-06-24 08:00:00,
2013-06-24 01:05:00,57.7,54.5,29.14,SW,225,4.0,11.0,89,0.00,,,0.01,meteohub,2013-06-24 08:05:00,
2013-06-24 01:10:00,57.7,54.5,29.15,SW,225,1.0,6.0,89,0.00,,,0.01,meteohub,2013-06-24 08:10:00,
2013-06-24 01:15:00,57.6,54.7,29.14,South,180,2.0,7.0,90,0.00,,,0.01,meteohub,2013-06-24 08:15:00,
2013-06-24 01:20:00,57.6,54.3,29.15,South,180,3.0,7.0,89,0.00,,,0.01,meteohub,2013-06-24 08:20:00,
2013-06-24 01:25:00,57.6,54.3,29.15,SW,225,0.0,7.0,89,0.00,,,0.01,meteohub,2013-06-24 08:25:00,
2013-06-24 01:31:00,57.6,54.7,29.15,SE,135,0.0,6.0,90,0.00,,,0.01,meteohub,2013-06-24 08:31:00,
2013-06-24 01:36:00,57.6,54.7,29.15,NE,45,0.0,3.0,90,0.00,,,0.01,meteohub,2013-06-24 08:36:00,
2013-06-24 01:41:00,57.4,54.5,29.15,NE,45,0.0,1.0,90,0.00,,,0.01,meteohub,2013-06-24 08:41:00,
2013-06-24 01:46:00,57.4,54.9,29.15,South,180,0.0,1.0,91,0.00,,,0.01,meteohub,2013-06-24 08:46:00,
2013-06-24 01:51:00,57.4,54.5,29.15,South,180,1.0,2.0,90,0.00,,,0.01,meteohub,2013-06-24 08:51:00,
2013-06-24 01:57:00,57.2,54.3,29.15,South,180,0.0,2.0,90,0.00,,,0.01,meteohub,2013-06-24 08:57:00,
2013-06-24 02:02:00,57.2,54.3,29.15,SW,225,3.0,3.0,90,0.00,,,0.01,meteohub,2013-06-24 09:02:00,
2013-06-24 02:07:00,57.2,54.0,29.15,SW,225,3.0,7.0,89,0.00,,,0.01,meteohub,2013-06-24 09:07:00,
2013-06-24 02:12:00,57.0,53.4,29.15,South,180,3.0,7.0,88,0.00,,,0.01,meteohub,2013-06-24 09:12:00,
2013-06-24 02:17:00,57.0,53.4,29.15,South,180,0.0,7.0,88,0.00,,,0.01,meteohub,2013-06-24 09:17:00,
2013-06-24 02:22:00,57.0,53.4,29.15,SE,135,1.0,6.0,88,0.00,,,0.01,meteohub,2013-06-24 09:22:00,
2013-06-24 02:27:00,56.7,53.1,29.15,South,180,2.0,5.0,88,0.00,,,0.01,meteohub,2013-06-24 09:27:00,
2013-06-24 02:32:00,56.5,53.2,29.15,SE,135,2.0,5.0,89,0.00,,,0.01,meteohub,2013-06-24 09:32:00,
2013-06-24 02:37:00,56.3,53.1,29.15,South,180,0.0,2.0,89,0.00,,,0.01,meteohub,2013-06-24 09:37:00,
2013-06-24 02:42:00,55.9,53.1,29.15,SW,225,4.0,4.0,90,0.00,,,0.01,meteohub,2013-06-24 09:42:00,
2013-06-24 02:47:00,55.8,52.9,29.15,SE,135,0.0,4.0,90,0.00,,,0.01,meteohub,2013-06-24 09:47:00,
2013-06-24 02:52:00,55.4,52.9,29.15,SE,135,0.0,4.0,91,0.00,,,0.01,meteohub,2013-06-24 09:52:00,
2013-06-24 02:57:00,55.2,52.7,29.15,SW,225,0.0,4.0,91,0.00,,,0.01,meteohub,2013-06-24 09:57:00,
2013-06-24 03:02:00,55.2,52.7,29.15,South,180,2.0,3.0,91,0.00,,,0.01,meteohub,2013-06-24 10:02:00,
2013-06-24 03:07:00,55.0,52.2,29.15,East,90,3.0,3.0,90,0.00,,,0.01,meteohub,2013-06-24 10:07:00,
2013-06-24 03:13:00,54.9,52.0,29.15,SW,225,3.0,3.0,90,0.00,,,0.01,meteohub,2013-06-24 10:13:00,
2013-06-24 03:18:00,54.7,51.3,29.15,West,270,3.0,4.0,88,0.00,,,0.01,meteohub,2013-06-24 10:18:00,
2013-06-24 03:24:00,54.7,51.3,29.15,South,180,0.0,4.0,88,0.00,,,0.01,meteohub,2013-06-24 10:24:00,
2013-06-24 03:29:00,54.3,50.9,29.15,North,0,0.0,4.0,88,0.00,,,0.01,meteohub,2013-06-24 10:29:00,
2013-06-24 03:35:00,54.3,50.9,29.15,SW,225,0.0,3.0,88,0.00,,,0.01,meteohub,2013-06-24 10:35:00,
2013-06-24 03:41:00,54.3,50.9,29.15,South,180,1.0,2.0,88,0.00,,,0.01,meteohub,2013-06-24 10:41:00,
2013-06-24 03:46:00,54.1,50.7,29.15,SW,225,0.0,3.0,88,0.00,,,0.01,meteohub,2013-06-24 10:46:00,
2013-06-24 03:51:00,54.1,50.7,29.15,West,270,2.0,3.0,88,0.00,,,0.01,meteohub,2013-06-24 10:51:00,
2013-06-24 03:57:00,54.0,50.5,29.15,SW,225,0.0,4.0,88,0.00,,,0.01,meteohub,2013-06-24 10:57:00,
2013-06-24 04:02:00,54.0,50.5,29.15,SW,225,4.0,4.0,88,0.00,,,0.01,meteohub,2013-06-24 11:02:00,
2013-06-24 04:07:00,54.1,50.7,29.15,South,180,2.0,4.0,88,0.00,,,0.01,meteohub,2013-06-24 11:07:00,
2013-06-24 04:12:00,54.3,50.5,29.15,SW,225,0.0,4.0,87,0.00,,,0.01,meteohub,2013-06-24 11:12:00,
2013-06-24 04:17:00,54.5,50.7,29.15,SW,225,4.0,4.0,87,0.00,,,0.01,meteohub,2013-06-24 11:17:00,
2013-06-24 04:22:00,54.5,50.7,29.15,NE,45,2.0,4.0,87,0.00,,,0.01,meteohub,2013-06-24 11:22:00,
2013-06-24 04:27:00,54.5,50.7,29.15,NE,45,2.0,4.0,87,0.00,,,0.01,meteohub,2013-06-24 11:27:00,
2013-06-24 04:32:00,54.3,50.5,29.15,NE,45,2.0,4.0,87,0.00,,,0.01,meteohub,2013-06-24 11:32:00,
2013-06-24 04:37:00,54.3,50.5,29.15,SW,225,0.0,2.0,87,0.00,,,0.01,meteohub,2013-06-24 11:37:00,
2013-06-24 04:42:00,54.3,50.5,29.15,NW,315,0.0,2.0,87,0.00,,,0.01,meteohub,2013-06-24 11:42:00,
2013-06-24 04:48:00,54.3,50.5,29.15,SW,225,1.0,4.0,87,0.00,,,0.01,meteohub,2013-06-24 11:48:00,
2013-06-24 04:53:00,54.3,50.5,29.15,SW,225,0.0,4.0,87,0.00,,,0.01,meteohub,2013-06-24 11:53:00,
2013-06-24 04:58:00,54.3,50.9,29.15,SW,225,0.0,3.0,88,0.00,,,0.01,meteohub,2013-06-24 11:58:00,
2013-06-24 05:03:00,54.3,50.9,29.15,South,180,0.0,1.0,88,0.00,,,0.01,meteohub,2013-06-24 12:03:00,
2013-06-24 05:09:00,54.3,50.9,29.15,South,180,0.0,0.0,88,0.00,,,0.01,meteohub,2013-06-24 12:09:00,
2013-06-24 05:14:00,54.3,50.9,29.15,NE,45,0.0,0.0,88,0.00,,,0.01,meteohub,2013-06-24 12:14:00,
2013-06-24 05:19:00,54.3,50.9,29.16,SE,135,0.0,2.0,88,0.00,,,0.01,meteohub,2013-06-24 12:19:00,
2013-06-24 05:25:00,54.5,51.1,29.15,East,90,0.0,2.0,88,0.00,,,0.01,meteohub,2013-06-24 12:25:00,
2013-06-24 05:30:00,54.5,51.1,29.16,NE,45,0.0,2.0,88,0.00,,,0.01,meteohub,2013-06-24 12:30:00,
2013-06-24 05:35:00,54.5,51.1,29.15,NE,45,0.0,2.0,88,0.00,,,0.01,meteohub,2013-06-24 12:35:00,
2013-06-24 05:41:00,54.5,51.3,29.15,SE,135,0.0,2.0,89,0.00,,,0.01,meteohub,2013-06-24 12:41:00,
2013-06-24 05:46:00,54.5,51.3,29.15,North,0,0.0,2.0,89,0.00,,,0.01,meteohub,2013-06-24 12:46:00,
2013-06-24 05:51:00,54.5,51.3,29.15,North,0,1.0,2.0,89,0.00,,,0.01,meteohub,2013-06-24 12:51:00,
2013-06-24 05:56:00,54.3,51.1,29.16,SW,225,2.0,2.0,89,0.00,,,0.01,meteohub,2013-06-24 12:56:00,
2013-06-24 06:02:00,54.3,51.1,29.16,SW,225,0.0,2.0,89,0.00,,,0.01,meteohub,2013-06-24 13:02:00,
2013-06-24 06:07:00,54.3,51.4,29.16,SW,225,0.0,2.0,90,0.00,,,0.01,meteohub,2013-06-24 13:07:00,
2013-06-24 06:12:00,54.5,51.6,29.16,SW,225,0.0,2.0,90,0.00,,,0.01,meteohub,2013-06-24 13:12:00,
2013-06-24 06:17:00,54.5,51.6,29.16,SW,225,0.0,0.0,90,0.00,,,0.01,meteohub,2013-06-24 13:17:00,
2013-06-24 06:22:00,54.7,51.8,29.16,South,180,0.0,0.0,90,0.00,,,0.01,meteohub,2013-06-24 13:22:00,
2013-06-24 06:27:00,54.7,51.8,29.16,SW,225,0.0,0.0,90,0.00,,,0.01,meteohub,2013-06-24 13:27:00,
2013-06-24 06:32:00,54.9,52.0,29.16,South,180,0.0,2.0,90,0.00,,,0.01,meteohub,2013-06-24 13:32:00,
2013-06-24 06:38:00,55.0,52.2,29.16,SW,225,2.0,2.0,90,0.00,,,0.01,meteohub,2013-06-24 13:38:00,
2013-06-24 06:43:00,55.2,52.3,29.16,SE,135,2.0,2.0,90,0.00,,,0.01,meteohub,2013-06-24 13:43:00,
2013-06-24 06:48:00,55.2,52.3,29.16,South,180,0.0,2.0,90,0.00,,,0.01,meteohub,2013-06-24 13:48:00,
2013-06-24 06:53:00,55.4,52.5,29.16,SW,225,0.0,2.0,90,0.00,,,0.01,meteohub,2013-06-24 13:53:00,
2013-06-24 06:58:00,55.4,52.5,29.16,SE,135,1.0,2.0,90,0.00,,,0.01,meteohub,2013-06-24 13:58:00,
2013-06-24 07:04:00,55.4,52.5,29.16,North,0,0.0,2.0,90,0.00,,,0.01,meteohub,2013-06-24 14:04:00,
2013-06-24 07:09:00,55.6,52.7,29.16,East,90,0.0,2.0,90,0.00,,,0.01,meteohub,2013-06-24 14:09:00,
2013-06-24 07:14:00,55.4,52.5,29.16,East,90,0.0,2.0,90,0.00,,,0.01,meteohub,2013-06-24 14:14:00,
2013-06-24 07:20:00,55.6,52.7,29.16,SW,225,2.0,4.0,90,0.00,,,0.01,meteohub,2013-06-24 14:20:00,
2013-06-24 07:25:00,55.6,52.7,29.16,South,180,0.0,4.0,90,0.00,,,0.01,meteohub,2013-06-24 14:25:00,
2013-06-24 07:31:00,55.6,52.7,29.16,SW,225,2.0,2.0,90,0.00,,,0.01,meteohub,2013-06-24 14:31:00,
2013-06-24 07:36:00,55.6,52.7,29.16,East,90,0.0,2.0,90,0.00,,,0.01,meteohub,2013-06-24 14:36:00,
2013-06-24 07:41:00,55.6,52.7,29.16,South,180,0.0,2.0,90,0.00,,,0.01,meteohub,2013-06-24 14:41:00,
2013-06-24 07:46:00,55.8,53.2,29.16,South,180,0.0,3.0,91,0.00,,,0.01,meteohub,2013-06-24 14:46:00,
2013-06-24 07:52:00,56.1,53.2,29.16,West,270,3.0,3.0,90,0.00,,,0.01,meteohub,2013-06-24 14:52:00,
2013-06-24 07:57:00,55.9,53.1,29.16,NE,45,2.0,4.0,90,0.00,,,0.01,meteohub,2013-06-24 14:57:00,
2013-06-24 08:02:00,56.1,53.2,29.16,West,270,2.0,4.0,90,0.00,,,0.01,meteohub,2013-06-24 15:02:00,
2013-06-24 08:08:00,56.1,53.2,29.16,NE,45,1.0,4.0,90,0.00,,,0.01,meteohub,2013-06-24 15:08:00,
2013-06-24 08:13:00,56.1,53.2,29.16,SW,225,3.0,3.0,90,0.00,,,0.01,meteohub,2013-06-24 15:13:00,
2013-06-24 08:18:00,55.9,53.1,29.17,SW,225,1.0,3.0,90,0.00,,,0.01,meteohub,2013-06-24 15:18:00,
2013-06-24 08:23:00,55.8,52.9,29.17,SW,225,1.0,3.0,90,0.00,,,0.01,meteohub,2013-06-24 15:23:00,
2013-06-24 08:29:00,55.6,53.1,29.17,NE,45,3.0,3.0,91,0.00,,,0.01,meteohub,2013-06-24 15:29:00,
2013-06-24 08:35:00,55.6,53.1,29.17,SE,135,3.0,3.0,91,0.00,,,0.01,meteohub,2013-06-24 15:35:00,
2013-06-24 08:40:00,55.9,53.4,29.17,SW,225,0.0,3.0,91,0.00,,,0.01,meteohub,2013-06-24 15:40:00,
2013-06-24 08:45:00,56.3,53.4,29.17,SW,225,3.0,3.0,90,0.00,,,0.01,meteohub,2013-06-24 15:45:00,
2013-06-24 08:51:00,56.7,53.8,29.17,South,180,1.0,3.0,90,0.00,,,0.01,meteohub,2013-06-24 15:51:00,
2013-06-24 08:56:00,56.8,54.0,29.17,SE,135,2.0,3.0,90,0.00,,,0.01,meteohub,2013-06-24 15:56:00,
2013-06-24 09:02:00,56.8,54.0,29.17,SE,135,3.0,3.0,90,0.00,,,0.01,meteohub,2013-06-24 16:02:00,
2013-06-24 09:07:00,56.8,54.0,29.17,West,270,0.0,3.0,90,0.00,,,0.01,meteohub,2013-06-24 16:07:00,
2013-06-24 09:12:00,56.8,53.6,29.17,SW,225,2.0,5.0,89,0.00,,,0.01,meteohub,2013-06-24 16:12:00,
2013-06-24 09:17:00,57.0,54.1,29.17,SE,135,1.0,5.0,90,0.00,,,0.01,meteohub,2013-06-24 16:17:00,
2013-06-24 09:22:00,57.0,53.8,29.17,SW,225,0.0,5.0,89,0.00,,,0.01,meteohub,2013-06-24 16:22:00,
2013-06-24 09:27:00,57.0,53.4,29.17,South,180,3.0,3.0,88,0.00,,,0.01,meteohub,2013-06-24 16:27:00,
2013-06-24 09:32:00,56.8,53.6,29.17,South,180,2.0,4.0,89,0.00,,,0.01,meteohub,2013-06-24 16:32:00,
2013-06-24 09:37:00,57.2,54.0,29.17,North,0,2.0,4.0,89,0.00,,,0.01,meteohub,2013-06-24 16:37:00,
2013-06-24 09:42:00,57.4,54.1,29.17,SE,135,0.0,4.0,89,0.00,,,0.01,meteohub,2013-06-24 16:42:00,
2013-06-24 09:47:00,58.3,55.0,29.17,SW,225,2.0,2.0,89,0.00,,,0.01,meteohub,2013-06-24 16:47:00,
2013-06-24 09:52:00,58.8,54.7,29.17,SW,225,2.0,2.0,86,0.00,,,0.01,meteohub,2013-06-24 16:52:00,
2013-06-24 09:57:00,59.0,54.9,29.17,West,270,2.0,3.0,86,0.00,,,0.01,meteohub,2013-06-24 16:57:00,
2013-06-24 10:02:00,59.7,54.9,29.17,South,180,2.0,3.0,84,0.00,,,0.01,meteohub,2013-06-24 17:02:00,
2013-06-24 10:07:00,59.9,55.0,29.16,North,0,2.0,3.0,84,0.00,,,0.01,meteohub,2013-06-24 17:07:00,
2013-06-24 10:13:00,60.3,55.0,29.17,SW,225,0.0,4.0,83,0.00,,,0.01,meteohub,2013-06-24 17:13:00,
2013-06-24 10:18:00,60.3,55.0,29.17,SW,225,0.0,4.0,83,0.00,,,0.01,meteohub,2013-06-24 17:18:00,
2013-06-24 10:23:00,61.2,55.2,29.17,South,180,4.0,4.0,81,0.00,,,0.01,meteohub,2013-06-24 17:23:00,
2013-06-24 10:28:00,61.3,55.0,29.17,South,180,4.0,4.0,80,0.00,,,0.01,meteohub,2013-06-24 17:28:00,
2013-06-24 10:33:00,62.2,55.6,29.16,SE,135,4.0,4.0,79,0.00,,,0.01,meteohub,2013-06-24 17:33:00,
2013-06-24 10:39:00,62.2,54.9,29.16,NNW,338,4.0,4.0,77,0.00,,,0.01,meteohub,2013-06-24 17:39:00,
2013-06-24 10:44:00,62.1,54.7,29.17,NE,45,3.0,6.0,77,0.00,,,0.01,meteohub,2013-06-24 17:44:00,
2013-06-24 10:49:00,62.8,55.0,29.16,NE,45,3.0,6.0,76,0.00,,,0.01,meteohub,2013-06-24 17:49:00,
2013-06-24 10:54:00,62.8,54.7,29.16,SW,225,5.0,6.0,75,0.00,,,0.01,meteohub,2013-06-24 17:54:00,
2013-06-24 11:00:00,63.0,54.9,29.16,South,180,4.0,5.0,75,0.00,,,0.01,meteohub,2013-06-24 18:00:00,
2013-06-24 11:06:00,63.0,54.9,29.16,South,180,4.0,5.0,75,0.00,,,0.01,meteohub,2013-06-24 18:06:00,
2013-06-24 11:11:00,63.0,54.9,29.16,South,180,4.0,4.0,75,0.00,,,0.01,meteohub,2013-06-24 18:11:00,
2013-06-24 11:17:00,64.2,55.4,29.16,South,180,3.0,4.0,73,0.00,,,0.01,meteohub,2013-06-24 18:17:00,
2013-06-24 11:22:00,64.2,55.4,29.16,South,180,3.0,4.0,73,0.00,,,0.01,meteohub,2013-06-24 18:22:00,
2013-06-24 11:27:00,64.2,55.4,29.16,South,180,3.0,3.0,73,0.00,,,0.01,meteohub,2013-06-24 18:27:00,
2013-06-24 11:32:00,63.9,54.3,29.16,NE,45,4.0,4.0,71,0.00,,,0.01,meteohub,2013-06-24 18:32:00,
2013-06-24 11:37:00,64.2,55.0,29.15,NE,45,2.0,8.0,72,0.00,,,0.01,meteohub,2013-06-24 18:37:00,
2013-06-24 11:42:00,64.9,54.9,29.16,North,0,5.0,8.0,70,0.00,,,0.01,meteohub,2013-06-24 18:42:00,
2013-06-24 11:48:00,64.6,55.0,29.16,SW,225,2.0,8.0,71,0.00,,,0.01,meteohub,2013-06-24 18:48:00,
2013-06-24 11:54:00,64.2,54.7,29.16,SW,225,2.0,5.0,71,0.00,,,0.01,meteohub,2013-06-24 18:54:00,
2013-06-24 11:59:00,65.1,55.4,29.15,SW,225,3.0,8.0,71,0.00,,,0.01,meteohub,2013-06-24 18:59:00,
2013-06-24 12:05:00,65.1,55.0,29.15,East,90,2.0,8.0,70,0.00,,,0.01,meteohub,2013-06-24 19:05:00,
2013-06-24 12:10:00,65.1,55.0,29.15,East,90,2.0,4.0,70,0.00,,,0.01,meteohub,2013-06-24 19:10:00,
2013-06-24 12:16:00,64.9,54.1,29.16,NE,45,2.0,4.0,68,0.00,,,0.01,meteohub,2013-06-24 19:16:00,
2013-06-24 12:21:00,63.3,54.9,29.15,SW,225,4.0,10.0,74,0.00,,,0.01,meteohub,2013-06-24 19:21:00,
2013-06-24 12:26:00,61.0,53.4,29.16,SW,225,9.0,10.0,76,0.00,,,0.01,meteohub,2013-06-24 19:26:00,
2013-06-24 12:32:00,59.7,54.1,29.16,SW,225,5.0,12.0,82,0.00,,,0.01,meteohub,2013-06-24 19:32:00,
2013-06-24 12:37:00,59.4,54.9,29.16,SW,225,2.0,12.0,85,0.00,,,0.01,meteohub,2013-06-24 19:37:00,
2013-06-24 12:42:00,59.2,55.4,29.16,SW,225,2.0,11.0,87,0.00,,,0.01,meteohub,2013-06-24 19:42:00,
2013-06-24 12:47:00,59.5,55.9,29.16,SW,225,3.0,8.0,88,0.00,,,0.01,meteohub,2013-06-24 19:47:00,
2013-06-24 12:52:00,60.3,56.7,29.16,SW,225,2.0,4.0,88,0.00,,,0.01,meteohub,2013-06-24 19:52:00,
2013-06-24 12:57:00,61.0,56.8,29.16,SW,225,2.0,4.0,86,0.00,,,0.01,meteohub,2013-06-24 19:57:00,
2013-06-24 13:02:00,61.3,56.8,29.16,SW,225,2.0,4.0,85,0.00,,,0.01,meteohub,2013-06-24 20:02:00,
2013-06-24 13:07:00,61.2,56.7,29.16,SW,225,2.0,4.0,85,0.00,,,0.01,meteohub,2013-06-24 20:07:00,
2013-06-24 13:13:00,61.2,56.3,29.16,SW,225,4.0,4.0,84,0.00,,,0.01,meteohub,2013-06-24 20:13:00,
2013-06-24 13:18:00,61.0,55.8,29.16,SW,225,7.0,7.0,83,0.00,,,0.01,meteohub,2013-06-24 20:18:00,
2013-06-24 13:24:00,60.8,55.2,29.15,SW,225,4.0,5.0,82,0.00,,,0.01,meteohub,2013-06-24 20:24:00,
2013-06-24 13:29:00,61.0,56.1,29.16,SW,225,2.0,8.0,84,0.00,,,0.01,meteohub,2013-06-24 20:29:00,
2013-06-24 13:34:00,61.3,55.8,29.16,SW,225,2.0,8.0,82,0.00,,,0.01,meteohub,2013-06-24 20:34:00,
2013-06-24 13:39:00,61.5,55.2,29.15,SW,225,3.0,8.0,80,0.00,,,0.01,meteohub,2013-06-24 20:39:00,
2013-06-24 13:45:00,61.5,55.2,29.16,SW,225,0.0,5.0,80,0.00,,,0.01,meteohub,2013-06-24 20:45:00,
2013-06-24 13:50:00,61.7,54.9,29.16,SW,225,4.0,4.0,78,0.00,,,0.01,meteohub,2013-06-24 20:50:00,
2013-06-24 13:55:00,61.9,55.2,29.16,SE,135,2.0,4.0,79,0.00,,,0.01,meteohub,2013-06-24 20:55:00,
2013-06-24 14:02:00,63.0,56.3,29.16,SE,135,1.0,4.0,79,0.00,,,0.01,meteohub,2013-06-24 21:02:00,
2013-06-24 14:07:00,65.1,55.9,29.15,South,180,3.0,4.0,72,0.00,,,0.01,meteohub,2013-06-24 21:07:00,
2013-06-24 14:12:00,65.7,55.9,29.16,SW,225,4.0,8.0,71,0.00,,,0.01,meteohub,2013-06-24 21:12:00,
2013-06-24 14:17:00,65.5,55.4,29.15,SSW,203,6.0,8.0,70,0.00,,,0.01,meteohub,2013-06-24 21:17:00,
2013-06-24 14:22:00,63.1,53.6,29.16,SW,225,7.0,11.0,71,0.00,,,0.01,meteohub,2013-06-24 21:22:00,
2013-06-24 14:27:00,63.1,53.6,29.16,SW,225,9.0,11.0,71,0.00,,,0.01,meteohub,2013-06-24 21:27:00,
2013-06-24 14:32:00,62.4,53.6,29.16,SW,225,6.0,11.0,73,0.00,,,0.01,meteohub,2013-06-24 21:32:00,
2013-06-24 14:38:00,62.1,52.9,29.16,SW,225,10.0,12.0,72,0.00,,,0.01,meteohub,2013-06-24 21:38:00,
2013-06-24 14:43:00,61.7,52.9,29.16,South,180,8.0,12.0,73,0.00,,,0.01,meteohub,2013-06-24 21:43:00,
2013-06-24 14:48:00,61.9,53.1,29.16,SW,225,5.0,10.0,73,0.00,,,0.01,meteohub,2013-06-24 21:48:00,
2013-06-24 14:54:00,62.2,53.1,29.16,SW,225,8.0,10.0,72,0.00,,,0.01,meteohub,2013-06-24 21:54:00,
2013-06-24 14:59:00,63.3,55.2,29.16,South,180,2.0,9.0,75,0.00,,,0.01,meteohub,2013-06-24 21:59:00,
2013-06-24 15:04:00,64.4,55.6,29.16,South,180,3.0,8.0,73,0.00,,,0.01,meteohub,2013-06-24 22:04:00,
2013-06-24 15:10:00,65.1,53.4,29.16,SW,225,4.0,8.0,66,0.00,,,0.01,meteohub,2013-06-24 22:10:00,
2013-06-24 15:15:00,64.4,54.0,29.16,SW,225,6.0,9.0,69,0.00,,,0.01,meteohub,2013-06-24 22:15:00,
2013-06-24 15:20:00,64.8,54.7,29.16,SW,225,5.0,9.0,70,0.00,,,0.01,meteohub,2013-06-24 22:20:00,
2013-06-24 15:26:00,65.3,54.9,29.16,SW,225,6.0,10.0,69,0.00,,,0.01,meteohub,2013-06-24 22:26:00,
2013-06-24 15:31:00,65.3,53.6,29.16,South,180,4.0,10.0,66,0.00,,,0.01,meteohub,2013-06-24 22:31:00,
2013-06-24 15:36:00,65.8,55.0,29.16,SW,225,4.0,10.0,68,0.00,,,0.01,meteohub,2013-06-24 22:36:00,
2013-06-24 15:41:00,66.6,54.5,29.15,SW,225,8.0,8.0,65,0.00,,,0.01,meteohub,2013-06-24 22:41:00,
2013-06-24 15:47:00,66.4,55.6,29.15,SW,225,2.0,8.0,68,0.00,,,0.01,meteohub,2013-06-24 22:47:00,
2013-06-24 15:52:00,66.4,55.6,29.15,South,180,3.0,8.0,68,0.00,,,0.01,meteohub,2013-06-24 22:52:00,
2013-06-24 15:57:00,66.7,55.4,29.15,SW,225,7.0,8.0,67,0.00,,,0.01,meteohub,2013-06-24 22:57:00,
2013-06-24 16:02:00,66.9,54.9,29.15,SW,225,3.0,8.0,65,0.00,,,0.01,meteohub,2013-06-24 23:02:00,
2013-06-24 16:08:00,66.9,54.0,29.15,NW,315,3.0,8.0,63,0.00,,,0.01,meteohub,2013-06-24 23:08:00,
2013-06-24 16:13:00,66.4,53.8,29.15,SW,225,4.0,8.0,64,0.00,,,0.01,meteohub,2013-06-24 23:13:00,
2013-06-24 16:18:00,66.0,54.0,29.15,SW,225,8.0,8.0,65,0.00,,,0.01,meteohub,2013-06-24 23:18:00,
2013-06-24 16:24:00,65.7,54.0,29.15,SW,225,6.0,6.0,66,0.00,,,0.01,meteohub,2013-06-24 23:24:00,
2013-06-24 16:29:00,65.7,54.3,29.14,South,180,1.0,8.0,67,0.00,,,0.01,meteohub,2013-06-24 23:29:00,
2013-06-24 16:34:00,66.9,54.9,29.14,SW,225,3.0,8.0,65,0.00,,,0.01,meteohub,2013-06-24 23:34:00,
2013-06-24 16:40:00,67.8,55.6,29.15,NE,45,2.0,8.0,65,0.00,,,0.01,meteohub,2013-06-24 23:40:00,
2013-06-24 16:45:00,66.9,53.4,29.14,SW,225,2.0,8.0,62,0.00,,,0.01,meteohub,2013-06-24 23:45:00,
2013-06-24 16:50:00,66.7,54.1,29.15,SW,225,5.0,8.0,64,0.00,,,0.01,meteohub,2013-06-24 23:50:00,
2013-06-24 16:56:00,67.3,54.3,29.15,SW,225,4.0,8.0,63,0.00,,,0.01,meteohub,2013-06-24 23:56:00,
2013-06-24 17:01:00,67.8,54.7,29.14,West,270,2.0,8.0,63,0.00,,,0.01,meteohub,2013-06-25 00:01:00,
2013-06-24 17:06:00,68.9,54.0,29.14,SW,225,4.0,5.0,59,0.00,,,0.00,meteohub,2013-06-25 00:06:00,
2013-06-24 17:12:00,67.5,53.1,29.14,SW,225,3.0,4.0,60,0.00,,,0.00,meteohub,2013-06-25 00:12:00,
2013-06-24 17:17:00,67.1,54.1,29.14,SE,135,1.0,6.0,63,0.00,,,0.00,meteohub,2013-06-25 00:17:00,
2013-06-24 17:22:00,66.7,53.8,29.14,SW,225,4.0,6.0,63,0.00,,,0.00,meteohub,2013-06-25 00:22:00,
2013-06-24 17:27:00,65.3,52.9,29.14,SW,225,4.0,6.0,64,0.00,,,0.00,meteohub,2013-06-25 00:27:00,
2013-06-24 17:32:00,64.8,53.6,29.14,SE,135,2.0,4.0,67,0.00,,,0.00,meteohub,2013-06-25 00:32:00,
2013-06-24 17:37:00,64.8,52.7,29.14,NE,45,2.0,4.0,65,0.00,,,0.00,meteohub,2013-06-25 00:37:00,
2013-06-24 17:42:00,64.9,53.2,29.14,South,180,0.0,4.0,66,0.00,,,0.00,meteohub,2013-06-25 00:42:00,
2013-06-24 17:47:00,64.9,53.2,29.14,South,180,1.0,2.0,66,0.00,,,0.00,meteohub,2013-06-25 00:47:00,
2013-06-24 17:53:00,64.6,53.4,29.14,South,180,1.0,2.0,67,0.00,,,0.00,meteohub,2013-06-25 00:53:00,
2013-06-24 17:58:00,64.2,53.1,29.14,East,90,1.0,2.0,67,0.00,,,0.00,meteohub,2013-06-25 00:58:00,
2013-06-24 18:03:00,64.2,53.8,29.14,South,180,2.0,2.0,69,0.00,,,0.00,meteohub,2013-06-25 01:03:00,
2013-06-24 18:08:00,64.2,53.8,29.14,SW,225,2.0,2.0,69,0.00,,,0.00,meteohub,2013-06-25 01:08:00,
2013-06-24 18:14:00,63.7,53.2,29.15,SW,225,2.0,2.0,69,0.00,,,0.00,meteohub,2013-06-25 01:14:00,
2013-06-24 18:19:00,63.7,54.1,29.15,South,180,0.0,2.0,71,0.00,,,0.00,meteohub,2013-06-25 01:19:00,
2013-06-24 18:24:00,63.7,53.2,29.15,East,90,2.0,2.0,69,0.00,,,0.00,meteohub,2013-06-25 01:24:00,
2013-06-24 18:30:00,63.7,53.2,29.14,NW,315,2.0,2.0,69,0.00,,,0.00,meteohub,2013-06-25 01:30:00,
2013-06-24 18:35:00,63.7,52.9,29.14,East,90,2.0,4.0,68,0.00,,,0.00,meteohub,2013-06-25 01:35:00,
2013-06-24 18:40:00,63.5,53.1,29.14,East,90,3.0,4.0,69,0.00,,,0.00,meteohub,2013-06-25 01:40:00,
2013-06-24 18:45:00,63.5,54.0,29.14,NE,45,2.0,4.0,71,0.00,,,0.00,meteohub,2013-06-25 01:45:00,
2013-06-24 18:51:00,63.1,54.3,29.14,SW,225,2.0,4.0,73,0.00,,,0.00,meteohub,2013-06-25 01:51:00,
2013-06-24 18:56:00,62.6,54.1,29.14,South,180,1.0,3.0,74,0.00,,,0.00,meteohub,2013-06-25 01:56:00,
2013-06-24 19:01:00,61.9,54.7,29.15,South,180,0.0,2.0,77,0.01,,,0.01,meteohub,2013-06-25 02:01:00,
2013-06-24 19:07:00,61.2,54.9,29.15,SW,225,0.0,2.0,80,0.02,,,0.02,meteohub,2013-06-25 02:07:00,
2013-06-24 19:12:00,60.8,54.7,29.14,SW,225,0.0,2.0,80,0.02,,,0.02,meteohub,2013-06-25 02:12:00,
2013-06-24 19:17:00,60.6,55.0,29.14,SW,225,0.0,2.0,82,0.02,,,0.02,meteohub,2013-06-25 02:17:00,
2013-06-24 19:22:00,60.6,55.8,29.15,SW,225,2.0,2.0,84,0.02,,,0.02,meteohub,2013-06-25 02:22:00,
2013-06-24 19:28:00,60.4,55.9,29.15,SW,225,0.0,2.0,85,0.02,,,0.02,meteohub,2013-06-25 02:28:00,
2013-06-24 19:33:00,60.3,55.8,29.15,SW,225,0.0,2.0,85,0.04,,,0.04,meteohub,2013-06-25 02:33:00,
2013-06-24 19:38:00,59.9,55.9,29.15,SW,225,0.0,2.0,87,0.04,,,0.04,meteohub,2013-06-25 02:38:00,
2013-06-24 19:43:00,59.7,56.5,29.15,SW,225,0.0,0.0,89,0.04,,,0.04,meteohub,2013-06-25 02:43:00,
2013-06-24 19:48:00,59.4,56.5,29.14,SW,225,0.0,0.0,90,0.04,,,0.04,meteohub,2013-06-25 02:48:00,
2013-06-24 19:53:00,59.2,56.5,29.15,SW,225,0.0,0.0,91,0.04,,,0.04,meteohub,2013-06-25 02:53:00,
2013-06-24 19:59:00,59.0,56.3,29.14,SW,225,0.0,0.0,91,0.04,,,0.04,meteohub,2013-06-25 02:59:00,
2013-06-24 20:04:00,59.0,56.3,29.14,SW,225,0.0,0.0,91,0.02,,,0.04,meteohub,2013-06-25 03:04:00,
2013-06-24 20:10:00,59.0,56.3,29.14,SW,225,0.0,0.0,91,0.01,,,0.04,meteohub,2013-06-25 03:10:00,
2013-06-24 20:24:00,58.1,55.8,29.14,SW,225,0.0,0.0,92,0.01,,,0.04,meteohub,2013-06-25 03:24:00,
2013-06-24 20:29:00,57.9,55.6,29.14,SW,225,0.0,-999.0,92,0.02,,,0.05,meteohub,2013-06-25 03:29:00,
2013-06-24 20:34:00,57.9,55.9,29.14,SW,225,0.0,0.0,93,0.01,,,0.05,meteohub,2013-06-25 03:34:00,
2013-06-24 20:40:00,57.7,55.8,29.14,SW,225,0.0,0.0,93,0.01,,,0.05,meteohub,2013-06-25 03:40:00,
2013-06-24 20:45:00,57.7,55.8,29.14,SW,225,0.0,0.0,93,0.04,,,0.07,meteohub,2013-06-25 03:45:00,
2013-06-24 20:51:00,57.6,55.8,29.13,SW,225,0.0,0.0,94,0.04,,,0.07,meteohub,2013-06-25 03:51:00,
2013-06-24 20:57:00,57.6,55.8,29.14,SW,225,0.0,0.0,94,0.04,,,0.07,meteohub,2013-06-25 03:57:00,
2013-06-24 21:01:00,57.6,56.1,29.13,SW,225,0.0,1.0,95,0.04,,,0.07,meteohub,2013-06-25 04:01:00,
2013-06-24 21:02:00,57.4,55.9,29.14,SW,225,0.0,1.0,95,0.04,,,0.07,meteohub,2013-06-25 04:02:00,
2013-06-24 21:04:00,57.4,55.9,29.14,SW,225,0.0,1.0,95,0.04,,,0.07,meteohub,2013-06-25 04:04:00,
2013-06-24 21:07:00,57.4,55.9,29.13,SW,225,0.0,1.0,95,0.04,,,0.07,meteohub,2013-06-25 04:07:00,
2013-06-24 21:12:00,57.4,55.9,29.14,SW,225,0.0,1.0,95,0.02,,,0.07,meteohub,2013-06-25 04:12:00,
2013-06-24 21:17:00,57.6,56.5,29.14,SW,225,0.0,0.0,96,0.02,,,0.07,meteohub,2013-06-25 04:17:00,
2013-06-24 21:22:00,57.6,56.5,29.14,SW,225,0.0,2.0,96,0.02,,,0.07,meteohub,2013-06-25 04:22:00,
2013-06-24 21:27:00,57.6,56.7,29.14,SW,225,0.0,2.0,97,0.02,,,0.07,meteohub,2013-06-25 04:27:00,
2013-06-24 21:32:00,57.6,56.7,29.14,SW,225,0.0,2.0,97,0.02,,,0.07,meteohub,2013-06-25 04:32:00,
2013-06-24 21:37:00,57.6,57.0,29.14,SW,225,0.0,0.0,98,0.01,,,0.07,meteohub,2013-06-25 04:37:00,
2013-06-24 21:42:00,57.4,56.8,29.14,SW,225,0.0,0.0,98,0.01,,,0.08,meteohub,2013-06-25 04:42:00,
2013-06-24 21:47:00,57.4,57.0,29.14,SW,225,1.0,0.0,99,0.01,,,0.08,meteohub,2013-06-25 04:47:00,
2013-06-24 21:53:00,57.4,57.0,29.14,SW,225,1.0,2.0,99,0.01,,,0.08,meteohub,2013-06-25 04:53:00,
2013-06-24 21:58:00,57.4,57.0,29.14,SW,225,0.0,3.0,99,0.01,,,0.08,meteohub,2013-06-25 04:58:00,
2013-06-24 22:03:00,57.4,57.0,29.15,SW,225,0.0,3.0,99,0.01,,,0.08,meteohub,2013-06-25 05:03:00,
2013-06-24 22:08:00,57.2,56.8,29.15,SW,225,3.0,4.0,99,0.01,,,0.08,meteohub,2013-06-25 05:08:00,
2013-06-24 22:13:00,57.0,56.7,29.15,SW,225,0.0,4.0,99,0.01,,,0.08,meteohub,2013-06-25 05:13:00,
2013-06-24 22:18:00,56.8,56.5,29.15,SW,225,2.0,4.0,99,0.01,,,0.08,meteohub,2013-06-25 05:18:00,
2013-06-24 22:23:00,56.8,56.5,29.15,SW,225,2.0,4.0,99,0.01,,,0.08,meteohub,2013-06-25 05:23:00,
2013-06-24 22:28:00,56.8,56.5,29.15,SW,225,1.0,3.0,99,0.01,,,0.08,meteohub,2013-06-25 05:28:00,
2013-06-24 22:33:00,56.8,56.5,29.15,SW,225,2.0,3.0,99,0.01,,,0.08,meteohub,2013-06-25 05:33:00,
2013-06-24 22:38:00,56.8,56.5,29.15,SW,225,2.0,3.0,99,0.01,,,0.08,meteohub,2013-06-25 05:38:00,
2013-06-24 22:43:00,56.8,56.5,29.15,SW,225,0.0,3.0,99,0.00,,,0.08,meteohub,2013-06-25 05:43:00,
2013-06-24 22:48:00,56.8,56.5,29.15,SW,225,2.0,2.0,99,0.00,,,0.08,meteohub,2013-06-25 05:48:00,
2013-06-24 22:53:00,56.8,56.5,29.14,SW,225,0.0,2.0,99,0.00,,,0.08,meteohub,2013-06-25 05:53:00,
2013-06-24 22:58:00,56.8,56.5,29.15,SW,225,0.0,2.0,99,0.00,,,0.08,meteohub,2013-06-25 05:58:00,
2013-06-24 23:03:00,56.8,56.5,29.14,SW,225,0.0,2.0,99,0.00,,,0.08,meteohub,2013-06-25 06:03:00,
2013-06-24 23:08:00,56.7,56.3,29.15,SW,225,0.0,2.0,99,0.00,,,0.08,meteohub,2013-06-25 06:08:00,
2013-06-24 23:13:00,56.7,56.3,29.14,SW,225,0.0,0.0,99,0.00,,,0.08,meteohub,2013-06-25 06:13:00,
2013-06-24 23:18:00,56.5,56.1,29.14,SW,225,0.0,0.0,99,0.00,,,0.08,meteohub,2013-06-25 06:18:00,
2013-06-24 23:23:00,56.3,55.9,29.14,SW,225,0.0,0.0,99,0.00,,,0.08,meteohub,2013-06-25 06:23:00,
2013-06-24 23:29:00,56.3,55.9,29.14,SW,225,0.0,0.0,99,0.00,,,0.08,meteohub,2013-06-25 06:29:00,
2013-06-24 23:34:00,56.3,55.9,29.14,SW,225,0.0,0.0,99,0.00,,,0.08,meteohub,2013-06-25 06:34:00,
2013-06-24 23:39:00,56.3,55.9,29.14,SW,225,0.0,0.0,99,0.00,,,0.08,meteohub,2013-06-25 06:39:00,
2013-06-24 23:44:00,56.3,55.9,29.13,SW,225,0.0,0.0,99,0.00,,,0.08,meteohub,2013-06-25 06:44:00,
2013-06-24 23:49:00,56.3,55.9,29.14,SW,225,0.0,0.0,99,0.00,,,0.08,meteohub,2013-06-25 06:49:00,
2013-06-24 23:54:00,56.3,55.9,29.14,SE,135,0.0,0.0,99,0.00,,,0.08,meteohub,2013-06-25 06:54:00,
2013-06-24 23:59:00,56.3,55.9,29.13,SE,135,0.0,0.0,99,0.00,,,0.08,meteohub,2013-06-25 06:59:00,